Location: *
(46.3500°N, 10.9000°E)
Time: 22:49:36
(UTC+00:00)

A-11 Canister half - Pass Details

Date: 21 April 2021
Orbit: 1526 x 1682 km, 47.3° (Epoch: 13 May)

Event Time Altitude Azimuth Distance (km) Brightness Sun altitude
Rises 14:58:32 0° 241° (WSW) 4,859 12.7 32.0°
Reaches altitude 10° 15:01:38 10° 240° (WSW) 3,891 12.6 31.5°
Maximum altitude 15:11:38 77° 157° (SSE) 1,717 9.8 29.8°
Drops below altitude 10° 15:21:48 10° 74° (ENE) 3,948 10.7 28.1°
Sets 15:24:58 0° 73° (ENE) 4,934 11.1 27.6°
